Showing default

GAOFEN 9 04, 46025

Orbit data source: Space-Track

GAOFEN 9 04, 46025 is a payload satellite owned by GGKGJ (CN) in SSO that was launched on Thu, 06 Aug 2020 UTC via a CHANG ZHENG 2D launch vehicle from the Jiuquan Satellite Launch Center, China (JSC). Payload-class satellites include a variety of spacecraft equipped with specific instruments for various scientific and technological missions. These include communications satellites like Starlink; space stations such as the ISS; scientific satellites like the Hubble; Earth observation satellites from companies like Planet Labs, Umbra, and HawkEye 360; GPS; miniature CubeSats for education and research; and military/defense satellites.

Loading next visibility...
Identifier
46025, 2020-054A
Orbit
SSO
Country
Flag of CNCN / PRC
Related business
Manufacturer
DFH
Mission
Operational Defense Imaging
Bus & Motor
CAST-3000, AOCS
Mass
~1,700 kg wet, ~1,500 kg dry
Launch date (UTC)
2020-08-06 (6 years ago)
Launch vehicle
CHANG ZHENG 2D
Launch site
Jiuquan Satellite Launch Center, China (JSC)
Object type
Payload
Rocket body
Debris
Shape & HBR
Box + 2 Pan, Unknown HBR
Radar Cross Section
4.991 m², Large (>1 m²)

Expand to show TLE details & history
Last TLE update: 22 hours ago

TLE from 22 hours ago
0 GAOFEN 9 04
1 46025U 20054A   26172.50755024  .00014313  00000-0  39175-3 0  9994
2 46025  97.2425 241.4208 0011914  79.4880 280.7707 15.37372345327026
Epoch: 2026-06-21T12:10Z
TLE epoch observation values (Epoch: 2026-06-21T12:10:52.340Z)
Latitude
-0.00001°
Longitude
148.99589°
Altitude
455.489 km
Speed
7.64 km/s
True Right ascension
16h 05m 40s
True Declination
0° 00' 00"
Sunlit
Object was in full shadow at epoch
Visualization orbit readout
Latitude
Unknown
Longitude
Unknown
Altitude
Unknown
Speed
Unknown
Apparent Right ascension
Unknown
Apparent Declination
Unknown
Sunlit
N/A
Visualization observer readout
Local Sidereal Time
21:39:52
Azimuth
Unknown
Elevation
Unknown
Doppler factor
Unknown
Orbital elements
Apogee altitude
458.955 km
Perigee altitude
442.683 km
Semi-major axis
6,828.956 km
Eccentricity
0.00119
Inclination
97.2425°
RAAN
241.4208°
Arg. of periapsis
79.488°
True anomaly
280.63654°
Mean anomaly
280.7707°
Eccentric anomaly
280.70363°
Mean motion
3.84602 °/min
Orbital period
93.6 mins
BSTAR
0.00039175
Loading maneuver chart data...
Computing Atmospheric mass density...
Loading historical data...
Loading historical data...
Loading historical data...
Loading historical data...
Loading historical data...
Loading historical data...
Loading historical data...
Other satellites on launch #54 in the year 2020 (2020-08-06 UTC)

Documentation

Showing up to 5 results
|